Showing default

IRIDIUM 163, 43575

Orbit data source: Space-Track

IRIDIUM 163, 43575 is a payload satellite owned by Iridium (US) in LEO that was launched on Wed, 25 Jul 2018 UTC via an FALCON 9 launch vehicle from the Air Force Western Test Range (AFWTR). Payload-class satellites include a variety of spacecraft equipped with specific instruments for various scientific and technological missions. These include communications satellites like Starlink; space stations such as the ISS; scientific satellites like the Hubble; Earth observation satellites from companies like Planet Labs, Umbra, and HawkEye 360; GPS; miniature CubeSats for education and research; and military/defense satellites.

Loading next visibility...
Identifier
43575, 2018-061G
Orbit
LEO
Country
Flag of USUS
Related business
Manufacturer
NGIS SSG Gilbert
Mission
Operational Commercial Communications
Bus & Motor
ELITEBUS, Unknown motor
Mass
860 kg wet, 700 kg dry
Launch date (UTC)
2018-07-25 (8 years ago)
Launch vehicle
FALCON 9
Launch site
Air Force Western Test Range (AFWTR)
Object type
Payload
Rocket body
Debris
Shape & HBR
Trap Box + 2 Pan, 4.8 m
Radar Cross Section
10.154 m², Large (>1 m²)

Expand to show TLE details & history
Last TLE update: 12 hours ago

TLE from 12 hours ago
0 IRIDIUM 163
1 43575U 18061G   26256.39998212  .00000072  00000-0  18823-4 0  9999
2 43575  86.4001  19.8256 0002209  95.3481 264.7966 14.34217427426028
Epoch: 2026-09-13T09:35Z
TLE epoch observation values (Epoch: 2026-09-13T09:35:58.455Z)
Latitude
-0.00009°
Longitude
-116.56315°
Altitude
780.863 km
Speed
7.463 km/s
True Right ascension
01h 19m 18s
True Declination
0° 00' 00"
Sunlit
Object was in full shadow at epoch
Visualization orbit readout
Latitude
Unknown
Longitude
Unknown
Altitude
Unknown
Speed
Unknown
Apparent Right ascension
Unknown
Apparent Declination
Unknown
Sunlit
N/A
Visualization observer readout
Local Sidereal Time
14:21:52
Azimuth
Unknown
Elevation
Unknown
Doppler factor
Unknown
Orbital elements
Apogee altitude
776.213 km
Perigee altitude
773.053 km
Semi-major axis
7,152.77 km
Eccentricity
0.00022
Inclination
86.4001°
RAAN
19.8256°
Arg. of periapsis
95.3481°
True anomaly
264.77139°
Mean anomaly
264.7966°
Eccentric anomaly
264.784°
Mean motion
3.58783 °/min
Orbital period
100.34 mins
BSTAR
0.000018823
Loading maneuver chart data...
Computing Atmospheric mass density...
Loading historical data...
Loading historical data...
Loading historical data...
Loading historical data...
Loading historical data...
Loading historical data...
Loading historical data...

Documentation

Showing up to 5 results
|